C/2023 U1 ( Fuls )

Japanese version
Home page
Updated on September 4, 2024

---------------------------------------------------------------------

* Profile

Discovery Date October 16, 2023
Magnitude 19.3 mag
Discoverer David Carson Fuls (Mt. Lemmon Survey)

* Pictures

* Orbital Elements

Epoch 2024 Oct. 17.0 TT = JDT 2460600.5
T 2024 Oct. 12.73848 TT                                 Rudenko
q   4.9728607            (2000.0)            P               Q
z  +0.0004393      Peri.  255.62375     +0.09939105     +0.62946357
 +/-0.0000018      Node   305.80829     +0.71284140     -0.58539973
e   0.9978153      Incl.  108.14573     -0.69424675     -0.51096259
>From 120 observations 2023 Jan. 24-2024 Aug. 31, mean residual 0".6.

* Magnitudes Graph

        m1 = 8.0 + 5 log d + 10.0 log r

---------------------------------------------------------------------

The orbital elements are published on M.P.E.C. 2024-R10.
The magnitudes graphs are made with Comet for Windows.

---------------------------------------------------------------------

Copyright(C) Seiichi Yoshida (comet@aerith.net). All rights reserved.